Tracking 25711 objects as of 23-May-2022
HD Live streaming from Space Station
objects crossing your sky now

COSMOS 1275 DEB

Track COSMOS 1275 DEB now!
10-day predictions


NORAD ID: 20089
Int'l Code: 1981-053MQ
Perigee: 858.4 km
Apogee: 929.1 km
Inclination: 82.8 °
Period: 102.7 minutes
Semi major axis: 7264 km
RCS: 0.0116 m2 (small)
Launch date: June 4, 1981
Source: Commonwealth of Independent States (former USSR) (CIS)
Launch site: PLESETSK MISSILE AND SPACE COMPLEX (PKMTR)

Note: This is SATELLITE DEBRIS
aabbcc
Your satellite tracking list
Your tracking list is empty




NASA's NSSDC Master Catalog

Two Line Element Set (TLE):
1 20089U 81053MK  22142.68466284  .00002216  00000-0  14271-2 0  9999
2 20089  82.7502 129.7330 0048645 129.3383 231.2114 14.02073100525606
Source of the keplerian elements: AFSPC